Regional Weather Roundup
Issued by NWS

Home | Current Version | Previous Version | Text Only | Print | Product List | Glossary On
Versions: 1 2 3 4 5 6 7 8 9 10 11 12 13 14 15 16 17 18 19 20 21 22 23 24 25 26 27 28 29 30 31 32 33 34 35 36 37 38 39 40 41 42 43 44 45 46 47 48 49 50
000
ASUS45 KREV 261510
RWRNV
NEVADA REGIONAL WEATHER ROUNDUP
NATIONAL WEATHER SERVICE RENO NV
800 AM PDT SUN MAR 26 2017

NOTE: "FAIR" INDICATES FEW OR NO CLOUDS BELOW 12,000 FEET WITH NO
SIGNIFICANT WEATHER AND/OR OBSTRUCTIONS TO VISIBILITY.

NVZ001-003-004-261600-
WESTERN NEVADA

CITY           SKY/WX    TMP DP  RH WIND       PRES   REMARKS
RENO           CLOUDY    36  30  79 CALM      29.99S
CARSON CITY    CLOUDY    32  28  86 CALM      29.99F
MINDEN         CLOUDY    32  30  93 SW3       29.99F
FALLON         CLOUDY    39  27  62 S5        29.98S
LOVELOCK       CLOUDY    32  26  78 CALM      29.99R
HAWTHORNE      SUNNY     41  27  56 CALM      29.99S
$$

NVZ002-CAZ072-073-261600-
NORTHERN AND CENTRAL SIERRA

CITY           SKY/WX    TMP DP  RH WIND       PRES   REMARKS
S. LAKE TAHOE  CLOUDY    36  23  59 S13G21    30.00S
TRUCKEE        CLOUDY    34  27  75 SW8G17    30.02R
SQUAW VLY 8000   N/A     27  27 100 SW12        N/A
SUSANVILLE     CLOUDY    37  32  81 W3        30.00R
MAMMOTH LAKES  FAIR      29  23  79 N3        30.05R
BRIDGEPORT       N/A     40  -2  17 W12       29.97S
$$

NVZ030-031-036-261600-
NORTHERN NEVADA

CITY           SKY/WX    TMP DP  RH WIND       PRES   REMARKS
ELKO           PTSUNNY   33  28  81 E6        30.02R
WINNEMUCCA     CLOUDY    29  26  89 E3        29.98S
WENDOVER       SUNNY     39  30  70 E3        30.05R
$$

NVZ035-037-261600-
CENTRAL NEVADA

CITY           SKY/WX    TMP DP  RH WIND       PRES   REMARKS
ELY            SUNNY     30  25  81 S9        30.05S
EUREKA           N/A     33  27  78 SW6       30.02R
$$

NVZ013-014-261600-
SOUTH CENTRAL NEVADA

CITY           SKY/WX    TMP DP  RH WIND       PRES   REMARKS
TONOPAH        PTSUNNY   36  32  85 N10       30.04R
$$

NVZ017-020-022-261600-
SOUTHERN NEVADA

CITY           SKY/WX    TMP DP  RH WIND       PRES   REMARKS
LAS VEGAS      MOSUNNY   57  37  47 CALM      30.01R
N. LAS VEGAS   SUNNY     55  39  54 S6        30.01R
NELLIS AFB     SUNNY     54  38  56 CALM      30.02R
HENDERSON      SUNNY     53  38  56 S5        30.04R
MERCURY        SUNNY     50  37  61 E7        30.00S
$$



USA.gov is the U.S. government's official web portal to all federal, state and local government web resources and services.